sat.trackr.live / text

‹ back to catalog

STARLINK-5445

NORAD 54790 · 2022-175AJ

PAYLOAD ACTIVE UNKNOWN

§ Identity

Operator
Country
US
Launch date
2022-12-17
Launch site
AFETR
Launch vehicle
Mass (kg)
RCS (m²)

Purposes: comms

External: N2YO · Heavens-Above · Gunter

§ Orbital elements

Epoch: 2026-09-20T21:38:30.220224Z

Period
93.85 min
Inclination
53.1615°
Eccentricity
0.0001224
Mean motion
15.34366031 rev/d
Perigee alt
462.0 km
Apogee alt
463.6 km
Semi-major
6,840.9 km
B*
-9.2159e-5
RAAN
217.8239°
Arg perigee
70.4816°
Mean anomaly
289.6319°
Rev number
20,980

§ Raw data

STARLINK-54451 54790U 22175AJ  26263.90173866 -.00003485  00000+0 -92159-4 0  99922 54790  53.1615 217.8239 0001224  70.4816 289.6319 15.34366031209804

JSON: /api/v1/satellites/54790 · /tle

For live sub-satellite position, see the globe view (requires WebGL).

§ Visibility from observer

Set your observer location to see the next 7 days of passes ≥ 10°. The values pass through the URL so the page stays shareable.

No JS? Fill the form by hand. The geolocation button needs JavaScript.